When you browse on this site, cookies collect data to enhance your experience and personalize the content and advertising you see.
Visit our Privacy Policy to learn more. By continuing to use the site, you agree to this use of cookies and data.
  • In Sweden
  • List of Countries
  • For 7 days
  • Water Temperature
  • Weather Map
  • Weather Widgets
  • user-avatar
    Login

    Hourly Weather Ordino

    Today, 18 September, Wednesday

    Time Temperature Precipitation Wind Pressure Humidity
    00:00 +13°C° 0 mm 1 mps 634 mmHg 85%
    01:00 +13°C° 0.3 mm 1 mps 633 mmHg 84%
    02:00 +13°C° 0.3 mm 1 mps 633 mmHg 84%
    03:00 +13°C° 0.3 mm 1 mps 633 mmHg 83%
    04:00 +13°C° 0 mm 1 mps 633 mmHg 82%
    05:00 +13°C° 0 mm 1 mps 633 mmHg 82%
    06:00 +13°C° 0 mm 1 mps 633 mmHg 81%
    07:00 +15°C° 0.4 mm 1 mps 634 mmHg 77%
    08:00 +18°C° 0.4 mm 1 mps 635 mmHg 73%
    09:00 +20°C° 0.4 mm 1 mps 636 mmHg 69%
    10:00 +20°C° 1.6 mm 1 mps 636 mmHg 69%
    11:00 +20°C° 1.6 mm 1 mps 636 mmHg 69%
    12:00 +20°C° 1.6 mm 1 mps 636 mmHg 69%
    13:00 +20°C° 1.5 mm 1 mps 635 mmHg 71%
    14:00 +19°C° 1.5 mm 1 mps 635 mmHg 72%
    15:00 +19°C° 1.5 mm 1 mps 635 mmHg 73%
    16:00 +16°C° 1 mm 1 mps 634 mmHg 78%
    17:00 +15°C° 1 mm 1 mps 634 mmHg 82%
    18:00 +13°C° 1 mm 1 mps 633 mmHg 87%
    19:00 +13°C° 0.1 mm 1 mps 634 mmHg 85%
    20:00 +13°C° 0.1 mm 1 mps 634 mmHg 82%
    21:00 +12°C° 0.1 mm 1 mps 634 mmHg 80%
    22:00 +12°C° 0.1 mm 1 mps 634 mmHg 80%
    23:00 +12°C° 0.1 mm 1 mps 634 mmHg 79%

    Tomorrow, 19 September, Thursday

    Time Temperature Precipitation Wind Pressure Humidity
    00:00 +12°C° 0.1 mm 1 mps 634 mmHg 79%
    01:00 +12°C° 0 mm 1 mps 634 mmHg 78%
    02:00 +12°C° 0 mm 1 mps 634 mmHg 78%
    03:00 +12°C° 0 mm 1 mps 633 mmHg 77%
    04:00 +12°C° 0 mm 1 mps 634 mmHg 78%
    05:00 +11°C° 0 mm 1 mps 634 mmHg 78%
    06:00 +11°C° 0 mm 1 mps 634 mmHg 79%
    07:00 +14°C° 0 mm 1 mps 635 mmHg 73%
    08:00 +16°C° 0 mm 1 mps 636 mmHg 67%
    09:00 +19°C° 0 mm 1 mps 637 mmHg 61%
    10:00 +20°C° 0.4 mm 1 mps 637 mmHg 61%
    11:00 +20°C° 0.4 mm 1 mps 637 mmHg 61%
    12:00 +20°C° 0.4 mm 2 mps 637 mmHg 61%
    13:00 +20°C° 1.1 mm 1 mps 637 mmHg 65%
    14:00 +19°C° 1.1 mm 1 mps 636 mmHg 70%
    15:00 +19°C° 1.1 mm 1 mps 636 mmHg 74%
    16:00 +16°C° 1.9 mm 1 mps 635 mmHg 80%
    17:00 +15°C° 1.9 mm 1 mps 635 mmHg 86%
    18:00 +13°C° 1.9 mm 1 mps 634 mmHg 91%
    19:00 +13°C° 0.5 mm 1 mps 635 mmHg 90%
    20:00 +12°C° 0.5 mm 1 mps 635 mmHg 89%
    21:00 +12°C° 0.5 mm 1 mps 635 mmHg 87%
    22:00 +12°C° 0 mm 1 mps 635 mmHg 87%
    23:00 +12°C° 0 mm 1 mps 635 mmHg 87%

    Day after tomorrow, 20 September, Friday

    Time Temperature Precipitation Wind Pressure Humidity
    00:00 +11°C° 0 mm 1 mps 634 mmHg 87%
    01:00 +11°C° 0 mm 1 mps 634 mmHg 87%
    02:00 +11°C° 0 mm 1 mps 634 mmHg 88%
    03:00 +11°C° 0 mm 1 mps 634 mmHg 89%
    04:00 +11°C° 0 mm 1 mps 634 mmHg 88%
    05:00 +11°C° 0 mm 1 mps 634 mmHg 88%
    06:00 +11°C° 0 mm 1 mps 634 mmHg 88%
    07:00 +13°C° 0 mm 1 mps 635 mmHg 82%
    08:00 +15°C° 0 mm 2 mps 636 mmHg 75%
    09:00 +17°C° 0 mm 2 mps 637 mmHg 69%
    10:00 +18°C° 0.2 mm 2 mps 637 mmHg 66%
    11:00 +19°C° 0.2 mm 2 mps 637 mmHg 62%
    12:00 +20°C° 0.2 mm 2 mps 637 mmHg 58%
    13:00 +19°C° 0.7 mm 2 mps 636 mmHg 63%
    14:00 +18°C° 0.7 mm 2 mps 636 mmHg 68%
    15:00 +18°C° 0.7 mm 2 mps 635 mmHg 73%
    16:00 +16°C° 0.2 mm 2 mps 635 mmHg 79%
    17:00 +15°C° 0.2 mm 2 mps 634 mmHg 85%
    18:00 +13°C° 0.2 mm 1 mps 634 mmHg 91%
    19:00 +13°C° 0 mm 2 mps 634 mmHg 91%
    20:00 +13°C° 0 mm 2 mps 634 mmHg 92%
    21:00 +13°C° 0 mm 2 mps 634 mmHg 92%
    22:00 +12°C° 0 mm 2 mps 634 mmHg 90%
    23:00 +12°C° 0 mm 2 mps 633 mmHg 88%

    21 September, Saturday

    Time Temperature Precipitation Wind Pressure Humidity
    00:00 +12°C° 0 mm 2 mps 633 mmHg 86%
    01:00 +12°C° 0.1 mm 2 mps 633 mmHg 85%
    02:00 +12°C° 0.1 mm 2 mps 633 mmHg 85%
    03:00 +12°C° 0.1 mm 2 mps 633 mmHg 85%
    04:00 +12°C° 0.2 mm 2 mps 632 mmHg 85%
    05:00 +12°C° 0.2 mm 2 mps 632 mmHg 86%
    06:00 +12°C° 0.2 mm 1 mps 631 mmHg 86%
    07:00 +12°C° 1.7 mm 2 mps 632 mmHg 87%
    08:00 +13°C° 1.7 mm 2 mps 632 mmHg 88%
    09:00 +13°C° 1.7 mm 2 mps 632 mmHg 89%
    10:00 +13°C° 1.4 mm 2 mps 632 mmHg 91%
    11:00 +13°C° 1.4 mm 2 mps 632 mmHg 92%
    12:00 +13°C° 1.4 mm 2 mps 631 mmHg 93%
    13:00 +13°C° 1 mm 2 mps 631 mmHg 93%
    14:00 +14°C° 1 mm 2 mps 631 mmHg 92%
    15:00 +14°C° 1 mm 2 mps 631 mmHg 91%
    16:00 +14°C° 0.1 mm 2 mps 631 mmHg 92%
    17:00 +13°C° 0.1 mm 2 mps 630 mmHg 92%
    18:00 +13°C° 0.1 mm 2 mps 630 mmHg 93%
    19:00 +12°C° 0 mm 2 mps 630 mmHg 92%
    20:00 +12°C° 0 mm 2 mps 630 mmHg 92%
    21:00 +12°C° 0 mm 2 mps 631 mmHg 91%
    22:00 +12°C° 0 mm 2 mps 631 mmHg 89%
    23:00 +12°C° 0 mm 2 mps 631 mmHg 87%

    22 September, Sunday

    Time Temperature Precipitation Wind Pressure Humidity
    00:00 +12°C° 0 mm 2 mps 631 mmHg 86%
    01:00 +12°C° 0.1 mm 2 mps 631 mmHg 86%
    02:00 +12°C° 0.1 mm 2 mps 631 mmHg 87%
    03:00 +12°C° 0.1 mm 2 mps 630 mmHg 87%
    04:00 +12°C° 0.1 mm 1 mps 630 mmHg 88%
    05:00 +12°C° 0.1 mm 1 mps 630 mmHg 89%
    06:00 +12°C° 0.1 mm 1 mps 630 mmHg 90%
    07:00 +13°C° 0 mm 1 mps 631 mmHg 84%
    08:00 +15°C° 0 mm 1 mps 632 mmHg 78%
    09:00 +18°C° 0 mm 1 mps 633 mmHg 73%
    10:00 +18°C° 0.2 mm 1 mps 633 mmHg 72%
    11:00 +18°C° 0.2 mm 2 mps 633 mmHg 71%
    12:00 +18°C° 0.2 mm 2 mps 634 mmHg 70%
    13:00 +18°C° 0.5 mm 2 mps 633 mmHg 73%
    14:00 +17°C° 0.5 mm 2 mps 633 mmHg 76%
    15:00 +17°C° 0.5 mm 2 mps 633 mmHg 79%
    16:00 +15°C° 0.3 mm 1 mps 633 mmHg 84%
    17:00 +14°C° 0.3 mm 1 mps 633 mmHg 89%
    18:00 +13°C° 0.3 mm 1 mps 632 mmHg 94%
    19:00 +12°C° 0.3 mm 1 mps 633 mmHg 95%
    20:00 +12°C° 0.3 mm 1 mps 633 mmHg 95%
    21:00 +11°C° 0.3 mm 1 mps 634 mmHg 96%
    22:00 +11°C° 0.1 mm 1 mps 634 mmHg 96%
    23:00 +11°C° 0.1 mm 1 mps 634 mmHg 96%

    23 September, Monday

    Time Temperature Precipitation Wind Pressure Humidity
    00:00 +10°C° 0.1 mm 1 mps 634 mmHg 96%
    01:00 +10°C° 0 mm 1 mps 634 mmHg 96%
    02:00 +10°C° 0 mm 1 mps 634 mmHg 96%
    03:00 +10°C° 0 mm 1 mps 634 mmHg 96%
    04:00 +9°C° 0 mm 1 mps 634 mmHg 95%
    05:00 +9°C° 0 mm 1 mps 634 mmHg 95%
    06:00 +9°C° 0 mm 1 mps 635 mmHg 95%
    07:00 +10°C° 0 mm 1 mps 635 mmHg 87%
    08:00 +12°C° 0 mm 1 mps 636 mmHg 78%
    09:00 +14°C° 0 mm 1 mps 637 mmHg 70%
    10:00 +15°C° 0 mm 1 mps 638 mmHg 63%
    11:00 +16°C° 0 mm 2 mps 638 mmHg 55%
    12:00 +17°C° 0 mm 2 mps 638 mmHg 48%
    13:00 +17°C° 0 mm 2 mps 638 mmHg 49%
    14:00 +16°C° 0 mm 2 mps 637 mmHg 50%
    15:00 +16°C° 0 mm 2 mps 637 mmHg 51%
    16:00 +14°C° 0 mm 1 mps 637 mmHg 60%
    17:00 +12°C° 0 mm 1 mps 636 mmHg 69%
    18:00 +9°C° 0 mm 0 mps 635 mmHg 78%
    19:00 +10°C° 0 mm 1 mps 636 mmHg 79%
    20:00 +10°C° 0 mm 1 mps 636 mmHg 80%
    21:00 +10°C° 0 mm 1 mps 636 mmHg 81%
    22:00 +10°C° 0 mm 1 mps 636 mmHg 79%
    23:00 +10°C° 0 mm 1 mps 636 mmHg 76%
    Show more